Regional Weather Roundup
Issued by NWS

Home | Current Version | Previous Version | Text Only | Print | Product List | Glossary Off
Versions: 1 2 3 4 5 6 7 8 9 10 11 12 13 14 15 16 17 18 19 20 21 22 23 24 25 26 27 28 29 30 31 32 33 34 35 36 37 38 39 40 41 42 43 44 45 46 47 48 49 50

000
ASUS43 KTOP 021808
RWRKS

WEATHER ROUNDUP FOR KANSAS
NATIONAL WEATHER SERVICE GOODLAND KS
100 PM CDT WED SEP 02 2015

NOTE:  "FAIR" INDICATES FEW OR NO CLOUDS BELOW 12,000 FEET WITH NO
SIGNIFICANT WEATHER AND/OR OBSTRUCTIONS TO VISIBILITY.

KSZ001>006-013>018-027>032-041>047-021900-
NORTHWEST KANSAS

CITY           SKY/WX    TMP DP  RH WIND       PRES   REMARKS
GOODLAND       MOSUNNY   92  48  22 W3        29.97F
6HR MIN TEMP:  61; 6HR MAX TEMP:  93;

HAYS           FAIR      95  57  28 S20G25    29.89F
HILL CITY      FAIR      94  58  29 SE9       29.89F
6HR MIN TEMP:  70; 6HR MAX TEMP:  94;

RUSSELL        FAIR      94  60  32 S16       29.89F
6HR MIN TEMP:  73; 6HR MAX TEMP:  94;

$$

KSZ061>065-074>080-084>089-021900-
SOUTHWEST KANSAS

CITY           SKY/WX    TMP DP  RH WIND       PRES   REMARKS
DODGE CITY     FAIR      94  52  24 SW17G28   29.94F
6HR MIN TEMP:  67; 6HR MAX TEMP:  94;

ELKHART          N/A     92  60  34 S7          N/A
GARDEN CITY    FAIR      90  56  31 SW9       29.93F
6HR MIN TEMP:  62; 6HR MAX TEMP:  90;

GREAT BEND     FAIR      93  61  33 S23       29.90F
LIBERAL        FAIR      93  57  29 SW16G23   29.98F
PRATT          FAIR      91  55  29 MISG      29.95F
$$

KSZ066>073-081>083-090>101-021900-
SOUTHEAST KANSAS

CITY           SKY/WX    TMP DP  RH WIND       PRES   REMARKS
CHANUTE        FAIR      86  70  58 S13       30.05F
6HR MIN TEMP:  69; 6HR MAX TEMP:  86;

COFFEYVILLE    FAIR      85  72  65 S9        30.04F
6HR MIN TEMP:  68; 6HR MAX TEMP:  86;

HUTCHINSON     FAIR      93  63  36 S20G31    29.95F
6HR MIN TEMP:  74; 6HR MAX TEMP:  93;

MEDICINE LODGE   N/A     93  62  35 S20G28    29.94F
NEWTON         FAIR      91  63  38 S23G31    30.00F
PARSONS        FAIR      85  72  65 S9        30.06F
6HR MIN TEMP:  69; 6HR MAX TEMP:  86;

WICHITA INTL   FAIR      91  65  41 S24       29.96F
6HR MIN TEMP:  71; 6HR MAX TEMP:  92;

WICHITA JABRA  FAIR      88  68  51 S17       29.98F
6HR MIN TEMP:  72; 6HR MAX TEMP:  88;

WICHITA MCCONL FAIR      90  66  45 S20       29.98F
WINFIELD       FAIR      91  65  41 S17G28    30.01F
6HR MIN TEMP:  72; 6HR MAX TEMP:  92;

$$

KSZ007>012-019>026-033>040-048>060-102>105-021900-
NORTHEAST KANSAS

CITY           SKY/WX    TMP DP  RH WIND       PRES   REMARKS
CONCORDIA      FAIR      91  64  40 S16G23    29.90F
6HR MIN TEMP:  73; 6HR MAX TEMP:  91;

EMPORIA        FAIR      88  67  49 S21G30    30.00F
6HR MIN TEMP:  70; 6HR MAX TEMP:  89;

LAWRENCE       PTSUNNY   82  72  71 S12       30.01F
6HR MIN TEMP:  71; 6HR MAX TEMP:  82; 6HR PCP:  0.06;

MANHATTAN      FAIR      92  68  45 S20       29.93F HX  96
6HR MIN TEMP:  76; 6HR MAX TEMP:  92;

MARYSVILLE     FAIR      86  70  58 S17G24    29.93F
OLATHE IND     FAIR      82  73  74 SE8       30.03F
6HR MIN TEMP:  71; 6HR MAX TEMP:  82; 6HR PCP:  0.01;

OLATHE EXE     FAIR      80  72  76 S9        30.02F
6HR MIN TEMP:  70; 6HR MAX TEMP:  80; 6HR PCP: TRACE;

SALINA         FAIR      94  64  37 S20G28    29.90F HX  95
6HR MIN TEMP:  77; 6HR MAX TEMP:  94;

TOPEKA BILLARD FAIR      83  71  67 S13G22    29.99F
6HR MIN TEMP:  72; 6HR MAX TEMP:  83; 6HR PCP:  0.19;

TOPEKA FORBES  PTSUNNY   84  72  67 S13       29.99F
6HR MIN TEMP:  72; 6HR MAX TEMP:  84; 6HR PCP:  0.43;

$$



USA.gov is the U.S. government's official web portal to all federal, state and local government web resources and services.